CW9386 Weather Reports


Display with metric or nautical units.
time (UTC)temp
F
wind
direction
speed
MPH
gust
MPH
rain 1hr
in
rain 24hr
in
rain mn
in
humidity
%
barometer
mb
20260503005647 69 88 0.0 3.0 0.00 0.12 0.05 39 1019.8
20260503003638 69 42 3.0 8.0 0.00 0.12 0.05 38 1019.9
20260503001643 70 11 1.0 6.0 0.00 0.12 0.05 39 1019.8
20260503000638 70 344 3.0 5.0 0.00 0.12 0.05 39 1019.7
20260502235631 70 319 1.0 3.0 0.00 0.12 0.05 39 1019.8
20260502163733 56 183 1.0 3.0 0.00 0.12 0.05 76 1023.8
20260502162724 54 246 1.0 6.0 0.00 0.12 0.05 78 1023.8
20260502160734 52 271 1.0 4.0 0.00 0.12 0.05 82 1024.0
20260502151722 52 226 4.0 9.0 0.00 0.12 0.05 86 1023.4
20260502130729 49 220 0.0 2.0 0.00 0.17 0.05 89 1022.1
20260502123714 49 284 1.0 6.0 0.00 0.19 0.05 90 1021.6
20260502122710 49 285 2.0 8.0 0.00 0.19 0.05 90 1022.4
20260502121721 50 332 2.0 5.0 0.00 0.19 0.05 91 1022.2
20260502120720 50 284 2.0 3.0 0.00 0.19 0.05 91 1022.1
20260502115711 50 273 2.0 3.0 0.00 0.19 0.05 91 1021.9
20260502114726 50 62 0.0 1.0 0.01 0.19 0.05 90 1021.7
20260502113725 50 62 1.0 2.0 0.02 0.19 0.05 90 1021.8
20260502112717 50 73 0.0 2.0 0.02 0.19 0.05 90 1021.9
20260502111727 50 70 0.0 2.0 0.03 0.19 0.05 90 1021.9
20260502110726 50 96 1.0 2.0 0.03 0.19 0.05 89 1021.8
20260502105724 50 138 0.0 3.0 0.04 0.30 0.05 89 1022.0
20260502104714 50 204 0.0 2.0 0.03 0.29 0.04 88 1022.0
20260502103725 50 241 1.0 5.0 0.03 0.28 0.03 87 1022.1
20260502102716 51 238 2.0 4.0 0.03 0.28 0.03 87 1022.1
20260502101710 51 243 3.0 6.0 0.02 0.27 0.02 85 1022.1
20260502100725 52 267 3.0 8.0 0.02 0.27 0.02 86 1022.0
20260502070716 53 256 0.0 4.0 0.00 0.38 0.00 81 1020.9
20260502064715 53 323 1.0 3.0 0.00 0.38 0.00 82 1020.6
20260502063711 53 360 2.0 3.0 0.00 0.38 0.00 83 1020.3
20260502061724 53 173 0.0 4.0 0.00 0.38 0.00 84 1020.0
20260502060722 53 178 1.0 4.0 0.00 0.38 0.00 84 1019.8
20260502054707 54 211 2.0 7.0 0.00 0.38 0.38 84 1019.7
20260502053719 54 154 4.0 7.0 0.00 0.38 0.38 84 1019.7
20260502052718 55 200 6.0 11.0 0.00 0.38 0.38 84 1019.6
20260502051708 55 198 4.0 7.0 0.00 0.38 0.38 81 1019.3
20260502050706 55 103 4.0 7.0 0.00 0.38 0.38 74 1019.3
20260502045704 55 26 5.0 9.0 0.00 0.38 0.38 72 1019.2
20260502044722 54 105 4.0 7.0 0.00 0.38 0.38 73 1018.9
20260502043719 54 140 3.0 7.0 0.00 0.38 0.38 75 1018.7
20260502042717 54 38 0.0 4.0 0.00 0.38 0.38 79 1018.8
20260502040709 55 87 0.0 2.0 0.00 0.38 0.38 85 1018.8
20260502034719 55 261 0.0 0.0 0.00 0.38 0.38 85 1018.5
20260502033705 55 325 0.0 1.0 0.00 0.38 0.38 85 1018.3
20260502032711 55 320 0.0 3.0 0.00 0.38 0.38 87 1018.0
20260502031708 55 328 0.0 2.0 0.01 0.38 0.38 87 1018.3
20260502030703 55 328 1.0 4.0 0.01 0.38 0.38 87 1018.2
20260502025703 55 291 1.0 3.0 0.01 0.38 0.38 87 1017.9
20260502024711 55 211 0.0 3.0 0.01 0.38 0.38 86 1017.7
20260502023706 55 82 0.0 1.0 0.03 0.38 0.38 85 1017.3
20260502022721 55 80 0.0 3.0 0.05 0.38 0.38 85 1017.1
20260502021715 55 130 2.0 6.0 0.06 0.37 0.37 84 1016.9
20260502020709 55 206 2.0 6.0 0.06 0.37 0.37 85 1016.8
20260502015721 56 189 3.0 7.0 0.06 0.37 0.37 84 1016.7
20260502014717 56 343 0.0 4.0 0.06 0.37 0.37 83 1016.9
20260502013709 56 318 3.0 13.0 0.04 0.35 0.35 81 1017.2
20260502012701 57 318 4.0 16.0 0.02 0.33 0.33 78 1017.0
20260502011718 60 351 10.0 17.0 0.01 0.32 0.32 71 1016.8
20260502010711 62 15 2.0 10.0 0.00 0.31 0.31 62 1016.0